owner,sensor,date,latitude,longitude,vertical_datum,wind_speed,wind_to_direction,wind_speed_of_gust,qcFlag 
TCOON,ioos:station:TCOON:518:1,2017-11-01T00:00:00Z,29.5150,-94.5133,0.0,5.3,138.0,6.1,'11111222,11111222,11111222' 
TCOON,ioos:station:TCOON:518:1,2017-11-01T00:06:00Z,29.5150,-94.5133,0.0,5.3,134.0,6.2,'11111222,11111222,11111222' 
TCOON,ioos:station:TCOON:518:1,2017-11-01T00:12:00Z,29.5150,-94.5133,0.0,5.6,134.0,6.4,'11111222,11111222,11111222' 
TCOON,ioos:station:TCOON:518:1,2017-11-01T00:18:00Z,29.5150,-94.5133,0.0,5.6,134.0,6.4,'1111122,1111122,1111122' 
TCOON,ioos:station:TCOON:518:1,2017-11-01T00:24:00Z,29.5150,-94.5133,0.0,5.9,135.0,6.8,'11111222,11111222,11111222' 
TCOON,ioos:station:TCOON:518:1,2017-11-01T00:30:00Z,29.5150,-94.5133,0.0,6.2,135.0,7.0,'11111222,11111222,11111222' 
TCOON,ioos:station:TCOON:518:1,2017-11-01T00:36:00Z,29.5150,-94.5133,0.0,6.5,134.0,7.3,'11111222,11111222,11111222' 
TCOON,ioos:station:TCOON:518:1,2017-11-01T00:42:00Z,29.5150,-94.5133,0.0,6.2,135.0,7.4,'11111222,11111222,11111222' 
TCOON,ioos:station:TCOON:518:1,2017-11-01T00:48:00Z,29.5150,-94.5133,0.0,5.5,144.0,6.8,'11111222,11111222,11111222' 
TCOON,ioos:station:TCOON:518:1,2017-11-01T00:54:00Z,29.5150,-94.5133,0.0,5.6,144.0,6.9,'11111222,11111222,11111222' 
TCOON,ioos:station:TCOON:518:1,2017-11-01T01:00:00Z,29.5150,-94.5133,0.0,5.8,144.0,6.6,'11111222,11111222,11111222' 
TCOON,ioos:station:TCOON:518:1,2017-11-01T01:06:00Z,29.5150,-94.5133,0.0,6.0,138.0,7.0,'11111222,11111222,11111222' 
TCOON,ioos:station:TCOON:518:1,2017-11-01T01:12:00Z,29.5150,-94.5133,0.0,5.9,141.0,6.9,'11111222,11111222,11111222' 
TCOON,ioos:station:TCOON:518:1,2017-11-01T01:18:00Z,29.5150,-94.5133,0.0,5.9,141.0,6.9,'1111122,1111122,1111122' 
TCOON,ioos:station:TCOON:518:1,2017-11-01T01:24:00Z,29.5150,-94.5133,0.0,5.6,139.0,6.9,'11111222,11111222,11111222' 
TCOON,ioos:station:TCOON:518:1,2017-11-01T01:30:00Z,29.5150,-94.5133,0.0,5.7,139.0,7.0,'11111222,11111222,11111222' 
TCOON,ioos:station:TCOON:518:1,2017-11-01T01:36:00Z,29.5150,-94.5133,0.0,5.8,141.0,6.6,'11111222,11111222,11111222' 
TCOON,ioos:station:TCOON:518:1,2017-11-01T01:42:00Z,29.5150,-94.5133,0.0,5.3,140.0,6.2,'11111222,11111222,11111222' 
TCOON,ioos:station:TCOON:518:1,2017-11-01T01:48:00Z,29.5150,-94.5133,0.0,5.0,141.0,6.5,'11111222,11111222,11111222' 
TCOON,ioos:station:TCOON:518:1,2017-11-01T01:54:00Z,29.5150,-94.5133,0.0,4.9,144.0,5.5,'11111222,11111222,11111222' 
TCOON,ioos:station:TCOON:518:1,2017-11-01T02:00:00Z,29.5150,-94.5133,0.0,4.7,143.0,5.9,'11111222,11111222,11111222' 
TCOON,ioos:station:TCOON:518:1,2017-11-01T02:06:00Z,29.5150,-94.5133,0.0,4.7,144.0,5.7,'11111222,11111222,11111222' 
TCOON,ioos:station:TCOON:518:1,2017-11-01T02:12:00Z,29.5150,-94.5133,0.0,4.8,150.0,5.7,'11111222,11111222,11111222' 
TCOON,ioos:station:TCOON:518:1,2017-11-01T02:18:00Z,29.5150,-94.5133,0.0,4.8,150.0,5.7,'1111122,1111122,1111122' 
TCOON,ioos:station:TCOON:518:1,2017-11-01T02:24:00Z,29.5150,-94.5133,0.0,6.0,147.0,7.1,'11111222,11111222,11111222' 
TCOON,ioos:station:TCOON:518:1,2017-11-01T02:30:00Z,29.5150,-94.5133,0.0,6.3,145.0,7.4,'11111222,11111222,11111222' 
TCOON,ioos:station:TCOON:518:1,2017-11-01T02:36:00Z,29.5150,-94.5133,0.0,6.3,145.0,7.4,'11111222,11111222,11111222' 
TCOON,ioos:station:TCOON:518:1,2017-11-01T02:42:00Z,29.5150,-94.5133,0.0,6.3,149.0,7.5,'11111222,11111222,11111222' 
TCOON,ioos:station:TCOON:518:1,2017-11-01T02:48:00Z,29.5150,-94.5133,0.0,5.8,149.0,6.9,'11111222,11111222,11111222' 
TCOON,ioos:station:TCOON:518:1,2017-11-01T02:54:00Z,29.5150,-94.5133,0.0,5.6,152.0,7.2,'11111222,11111222,11111222' 
TCOON,ioos:station:TCOON:518:1,2017-11-01T03:00:00Z,29.5150,-94.5133,0.0,5.2,153.0,6.7,'11111222,11111222,11111222' 
TCOON,ioos:station:TCOON:518:1,2017-11-01T03:06:00Z,29.5150,-94.5133,0.0,5.0,152.0,6.2,'11111222,11111222,11111222' 
TCOON,ioos:station:TCOON:518:1,2017-11-01T03:12:00Z,29.5150,-94.5133,0.0,5.5,148.0,6.2,'11111222,11111222,11111222' 
TCOON,ioos:station:TCOON:518:1,2017-11-01T03:18:00Z,29.5150,-94.5133,0.0,5.5,151.0,6.7,'11111222,11111222,11111222' 
TCOON,ioos:station:TCOON:518:1,2017-11-01T03:24:00Z,29.5150,-94.5133,0.0,5.5,151.0,6.7,'1111122,1111122,1111122' 
TCOON,ioos:station:TCOON:518:1,2017-11-01T03:30:00Z,29.5150,-94.5133,0.0,4.8,152.0,6.1,'11111222,11111222,11111222' 
TCOON,ioos:station:TCOON:518:1,2017-11-01T03:36:00Z,29.5150,-94.5133,0.0,5.0,149.0,6.2,'11111222,11111222,11111222' 
TCOON,ioos:station:TCOON:518:1,2017-11-01T03:42:00Z,29.5150,-94.5133,0.0,4.8,148.0,5.7,'11111222,11111222,11111222' 
TCOON,ioos:station:TCOON:518:1,2017-11-01T03:48:00Z,29.5150,-94.5133,0.0,4.5,148.0,5.7,'11111222,11111222,11111222' 
TCOON,ioos:station:TCOON:518:1,2017-11-01T03:54:00Z,29.5150,-94.5133,0.0,4.7,149.0,5.8,'11111222,11111222,11111222' 
TCOON,ioos:station:TCOON:518:1,2017-11-01T04:00:00Z,29.5150,-94.5133,0.0,4.0,150.0,4.8,'11111222,11111222,11111222' 
TCOON,ioos:station:TCOON:518:1,2017-11-01T04:06:00Z,29.5150,-94.5133,0.0,3.7,150.0,4.6,'11111222,11111222,11111222' 
TCOON,ioos:station:TCOON:518:1,2017-11-01T04:12:00Z,29.5150,-94.5133,0.0,3.9,146.0,4.3,'11111222,11111222,11111222' 
TCOON,ioos:station:TCOON:518:1,2017-11-01T04:18:00Z,29.5150,-94.5133,0.0,3.9,146.0,4.3,'1111122,1111122,1111122' 
TCOON,ioos:station:TCOON:518:1,2017-11-01T04:24:00Z,29.5150,-94.5133,0.0,3.9,148.0,5.0,'11111222,11111222,11111222' 
TCOON,ioos:station:TCOON:518:1,2017-11-01T04:30:00Z,29.5150,-94.5133,0.0,4.0,145.0,4.6,'11111222,11111222,11111222' 
TCOON,ioos:station:TCOON:518:1,2017-11-01T04:36:00Z,29.5150,-94.5133,0.0,4.3,143.0,4.9,'11111222,11111222,11111222' 
TCOON,ioos:station:TCOON:518:1,2017-11-01T04:42:00Z,29.5150,-94.5133,0.0,4.3,144.0,4.9,'11111222,11111222,11111222' 
TCOON,ioos:station:TCOON:518:1,2017-11-01T04:48:00Z,29.5150,-94.5133,0.0,4.2,145.0,4.7,'11111222,11111222,11111222' 
TCOON,ioos:station:TCOON:518:1,2017-11-01T04:54:00Z,29.5150,-94.5133,0.0,4.1,144.0,4.8,'11111222,11111222,11111222' 
TCOON,ioos:station:TCOON:518:1,2017-11-01T05:00:00Z,29.5150,-94.5133,0.0,4.3,143.0,5.1,'11111222,11111222,11111222' 
TCOON,ioos:station:TCOON:518:1,2017-11-01T05:06:00Z,29.5150,-94.5133,0.0,4.5,144.0,5.2,'11111222,11111222,11111222' 
TCOON,ioos:station:TCOON:518:1,2017-11-01T05:12:00Z,29.5150,-94.5133,0.0,4.4,148.0,5.5,'11111222,11111222,11111222' 
TCOON,ioos:station:TCOON:518:1,2017-11-01T05:18:00Z,29.5150,-94.5133,0.0,4.4,148.0,5.5,'1111122,1111122,1111122' 
TCOON,ioos:station:TCOON:518:1,2017-11-01T05:24:00Z,29.5150,-94.5133,0.0,5.0,149.0,5.8,'11111222,11111222,11111222' 
TCOON,ioos:station:TCOON:518:1,2017-11-01T05:30:00Z,29.5150,-94.5133,0.0,5.1,148.0,6.0,'11111222,11111222,11111222' 
TCOON,ioos:station:TCOON:518:1,2017-11-01T05:36:00Z,29.5150,-94.5133,0.0,4.6,149.0,5.7,'11111222,11111222,11111222' 
TCOON,ioos:station:TCOON:518:1,2017-11-01T05:42:00Z,29.5150,-94.5133,0.0,5.0,148.0,5.7,'11111222,11111222,11111222' 
TCOON,ioos:station:TCOON:518:1,2017-11-01T05:48:00Z,29.5150,-94.5133,0.0,4.4,149.0,5.6,'11111222,11111222,11111222' 
TCOON,ioos:station:TCOON:518:1,2017-11-01T05:54:00Z,29.5150,-94.5133,0.0,3.4,155.0,5.4,'11111222,11111222,11111222' 
TCOON,ioos:station:TCOON:518:1,2017-11-01T06:00:00Z,29.5150,-94.5133,0.0,3.7,154.0,4.6,'11111222,11111222,11111222' 
TCOON,ioos:station:TCOON:518:1,2017-11-01T06:06:00Z,29.5150,-94.5133,0.0,3.9,149.0,4.6,'11111222,11111222,11111222' 
TCOON,ioos:station:TCOON:518:1,2017-11-01T06:12:00Z,29.5150,-94.5133,0.0,4.1,148.0,4.7,'11111222,11111222,11111222' 
TCOON,ioos:station:TCOON:518:1,2017-11-01T06:18:00Z,29.5150,-94.5133,0.0,4.1,148.0,4.7,'1111122,1111122,1111122' 
TCOON,ioos:station:TCOON:518:1,2017-11-01T06:24:00Z,29.5150,-94.5133,0.0,4.4,146.0,5.1,'11111222,11111222,11111222' 
TCOON,ioos:station:TCOON:518:1,2017-11-01T06:30:00Z,29.5150,-94.5133,0.0,4.6,149.0,5.5,'11111222,11111222,11111222' 
TCOON,ioos:station:TCOON:518:1,2017-11-01T06:36:00Z,29.5150,-94.5133,0.0,4.6,152.0,5.5,'11111222,11111222,11111222' 
TCOON,ioos:station:TCOON:518:1,2017-11-01T06:42:00Z,29.5150,-94.5133,0.0,4.6,154.0,5.9,'11111222,11111222,11111222' 
TCOON,ioos:station:TCOON:518:1,2017-11-01T06:48:00Z,29.5150,-94.5133,0.0,4.5,155.0,6.0,'11111222,11111222,11111222' 
TCOON,ioos:station:TCOON:518:1,2017-11-01T06:54:00Z,29.5150,-94.5133,0.0,4.6,155.0,5.4,'11111222,11111222,11111222' 
TCOON,ioos:station:TCOON:518:1,2017-11-01T07:00:00Z,29.5150,-94.5133,0.0,5.2,153.0,6.2,'11111222,11111222,11111222' 
TCOON,ioos:station:TCOON:518:1,2017-11-01T07:06:00Z,29.5150,-94.5133,0.0,5.3,149.0,6.4,'11111222,11111222,11111222' 
TCOON,ioos:station:TCOON:518:1,2017-11-01T07:12:00Z,29.5150,-94.5133,0.0,5.2,155.0,7.1,'11111222,11111222,11111222' 
TCOON,ioos:station:TCOON:518:1,2017-11-01T07:18:00Z,29.5150,-94.5133,0.0,5.2,155.0,7.1,'1111122,1111122,1111122' 
TCOON,ioos:station:TCOON:518:1,2017-11-01T07:24:00Z,29.5150,-94.5133,0.0,5.1,154.0,6.0,'11111222,11111222,11111222' 
TCOON,ioos:station:TCOON:518:1,2017-11-01T07:30:00Z,29.5150,-94.5133,0.0,5.0,154.0,6.0,'11111222,11111222,11111222' 
TCOON,ioos:station:TCOON:518:1,2017-11-01T07:42:00Z,29.5150,-94.5133,0.0,5.1,152.0,6.1,'11111222,11111222,11111222' 
TCOON,ioos:station:TCOON:518:1,2017-11-01T07:48:00Z,29.5150,-94.5133,0.0,5.0,152.0,5.8,'11111222,11111222,11111222' 
TCOON,ioos:station:TCOON:518:1,2017-11-01T07:54:00Z,29.5150,-94.5133,0.0,4.8,159.0,6.1,'11111222,11111222,11111222' 
TCOON,ioos:station:TCOON:518:1,2017-11-01T08:00:00Z,29.5150,-94.5133,0.0,4.5,159.0,5.7,'11111222,11111222,11111222' 
TCOON,ioos:station:TCOON:518:1,2017-11-01T08:06:00Z,29.5150,-94.5133,0.0,5.1,156.0,5.9,'11111222,11111222,11111222' 
TCOON,ioos:station:TCOON:518:1,2017-11-01T08:12:00Z,29.5150,-94.5133,0.0,4.3,163.0,5.8,'11111222,11111222,11111222' 
TCOON,ioos:station:TCOON:518:1,2017-11-01T08:18:00Z,29.5150,-94.5133,0.0,4.3,163.0,5.8,'1111122,1111122,1111122' 
TCOON,ioos:station:TCOON:518:1,2017-11-01T08:24:00Z,29.5150,-94.5133,0.0,4.9,169.0,6.7,'11111222,11111222,11111222' 
TCOON,ioos:station:TCOON:518:1,2017-11-01T08:30:00Z,29.5150,-94.5133,0.0,4.2,178.0,7.1,'11111222,11111222,11111222' 
TCOON,ioos:station:TCOON:518:1,2017-11-01T08:36:00Z,29.5150,-94.5133,0.0,3.3,182.0,5.6,'11111222,11111222,11111222' 
TCOON,ioos:station:TCOON:518:1,2017-11-01T08:42:00Z,29.5150,-94.5133,0.0,3.9,183.0,6.1,'11111222,11111222,11111222' 
TCOON,ioos:station:TCOON:518:1,2017-11-01T08:48:00Z,29.5150,-94.5133,0.0,3.7,180.0,5.6,'11111222,11111222,11111222' 
TCOON,ioos:station:TCOON:518:1,2017-11-01T08:54:00Z,29.5150,-94.5133,0.0,4.2,179.0,5.7,'11111222,11111222,11111222' 
TCOON,ioos:station:TCOON:518:1,2017-11-01T09:00:00Z,29.5150,-94.5133,0.0,3.9,187.0,6.2,'11111222,11111222,11111222' 
TCOON,ioos:station:TCOON:518:1,2017-11-01T09:06:00Z,29.5150,-94.5133,0.0,3.9,187.0,6.4,'11111222,11111222,11111222' 
TCOON,ioos:station:TCOON:518:1,2017-11-01T09:12:00Z,29.5150,-94.5133,0.0,5.2,181.0,7.9,'11111222,11111222,11111222' 
TCOON,ioos:station:TCOON:518:1,2017-11-01T09:18:00Z,29.5150,-94.5133,0.0,5.2,181.0,7.9,'1111122,1111122,1111122' 
TCOON,ioos:station:TCOON:518:1,2017-11-01T09:24:00Z,29.5150,-94.5133,0.0,3.9,186.0,5.8,'11111222,11111222,11111222' 
TCOON,ioos:station:TCOON:518:1,2017-11-01T09:30:00Z,29.5150,-94.5133,0.0,5.1,179.0,8.2,'11111222,11111222,11111222' 
TCOON,ioos:station:TCOON:518:1,2017-11-01T09:36:00Z,29.5150,-94.5133,0.0,5.1,172.0,8.1,'11111222,11111222,11111222' 
TCOON,ioos:station:TCOON:518:1,2017-11-01T09:42:00Z,29.5150,-94.5133,0.0,4.7,168.0,6.7,'11111222,11111222,11111222' 
TCOON,ioos:station:TCOON:518:1,2017-11-01T09:48:00Z,29.5150,-94.5133,0.0,4.2,168.0,5.8,'11111222,11111222,11111222' 
TCOON,ioos:station:TCOON:518:1,2017-11-01T09:54:00Z,29.5150,-94.5133,0.0,4.8,167.0,5.8,'11111222,11111222,11111222' 
TCOON,ioos:station:TCOON:518:1,2017-11-01T10:00:00Z,29.5150,-94.5133,0.0,4.3,170.0,6.5,'11111222,11111222,11111222' 
TCOON,ioos:station:TCOON:518:1,2017-11-01T10:06:00Z,29.5150,-94.5133,0.0,5.4,161.0,6.6,'11111222,11111222,11111222' 
TCOON,ioos:station:TCOON:518:1,2017-11-01T10:12:00Z,29.5150,-94.5133,0.0,5.2,161.0,7.3,'11111222,11111222,11111222' 
TCOON,ioos:station:TCOON:518:1,2017-11-01T10:18:00Z,29.5150,-94.5133,0.0,5.2,161.0,7.3,'1111122,1111122,1111122' 
TCOON,ioos:station:TCOON:518:1,2017-11-01T10:24:00Z,29.5150,-94.5133,0.0,5.0,164.0,6.9,'11111222,11111222,11111222' 
TCOON,ioos:station:TCOON:518:1,2017-11-01T10:30:00Z,29.5150,-94.5133,0.0,4.6,163.0,5.9,'11111222,11111222,11111222' 
TCOON,ioos:station:TCOON:518:1,2017-11-01T10:36:00Z,29.5150,-94.5133,0.0,4.2,164.0,6.1,'11111222,11111222,11111222' 
TCOON,ioos:station:TCOON:518:1,2017-11-01T10:42:00Z,29.5150,-94.5133,0.0,4.9,164.0,6.3,'11111222,11111222,11111222' 
TCOON,ioos:station:TCOON:518:1,2017-11-01T10:48:00Z,29.5150,-94.5133,0.0,4.3,164.0,6.0,'11111222,11111222,11111222' 
TCOON,ioos:station:TCOON:518:1,2017-11-01T10:54:00Z,29.5150,-94.5133,0.0,6.0,163.0,7.6,'11111222,11111222,11111222' 
TCOON,ioos:station:TCOON:518:1,2017-11-01T11:00:00Z,29.5150,-94.5133,0.0,5.5,160.0,7.2,'11111222,11111222,11111222' 
TCOON,ioos:station:TCOON:518:1,2017-11-01T11:06:00Z,29.5150,-94.5133,0.0,5.6,163.0,6.8,'11111222,11111222,11111222' 
TCOON,ioos:station:TCOON:518:1,2017-11-01T11:12:00Z,29.5150,-94.5133,0.0,5.0,162.0,7.1,'11111222,11111222,11111222' 
TCOON,ioos:station:TCOON:518:1,2017-11-01T11:18:00Z,29.5150,-94.5133,0.0,5.0,162.0,7.1,'1111122,1111122,1111122' 
TCOON,ioos:station:TCOON:518:1,2017-11-01T11:24:00Z,29.5150,-94.5133,0.0,5.5,158.0,7.4,'11111222,11111222,11111222' 
TCOON,ioos:station:TCOON:518:1,2017-11-01T11:30:00Z,29.5150,-94.5133,0.0,5.5,162.0,6.9,'11111222,11111222,11111222' 
TCOON,ioos:station:TCOON:518:1,2017-11-01T11:36:00Z,29.5150,-94.5133,0.0,5.6,164.0,6.9,'11111222,11111222,11111222' 
TCOON,ioos:station:TCOON:518:1,2017-11-01T11:42:00Z,29.5150,-94.5133,0.0,5.3,170.0,6.7,'11111222,11111222,11111222' 
TCOON,ioos:station:TCOON:518:1,2017-11-01T11:48:00Z,29.5150,-94.5133,0.0,4.2,178.0,7.8,'11111222,11111222,11111222' 
TCOON,ioos:station:TCOON:518:1,2017-11-01T11:54:00Z,29.5150,-94.5133,0.0,4.1,182.0,6.6,'11111222,11111222,11111222' 
TCOON,ioos:station:TCOON:518:1,2017-11-01T12:00:00Z,29.5150,-94.5133,0.0,5.7,182.0,8.5,'11111222,11111222,11111222' 
TCOON,ioos:station:TCOON:518:1,2017-11-01T12:06:00Z,29.5150,-94.5133,0.0,6.1,191.0,8.9,'11111222,11111222,11111222' 
TCOON,ioos:station:TCOON:518:1,2017-11-01T12:12:00Z,29.5150,-94.5133,0.0,5.5,191.0,8.8,'11111222,11111222,11111222' 
TCOON,ioos:station:TCOON:518:1,2017-11-01T12:18:00Z,29.5150,-94.5133,0.0,5.5,191.0,8.8,'1111122,1111122,1111122' 
TCOON,ioos:station:TCOON:518:1,2017-11-01T12:24:00Z,29.5150,-94.5133,0.0,4.1,196.0,6.5,'11111222,11111222,11111222' 
TCOON,ioos:station:TCOON:518:1,2017-11-01T12:30:00Z,29.5150,-94.5133,0.0,2.7,217.0,5.1,'11111222,11111222,11111222' 
TCOON,ioos:station:TCOON:518:1,2017-11-01T12:36:00Z,29.5150,-94.5133,0.0,7.7,305.0,11.4,'11111222,11111222,11111222' 
TCOON,ioos:station:TCOON:518:1,2017-11-01T12:42:00Z,29.5150,-94.5133,0.0,5.4,322.0,20.3,'11111222,11111222,11111222' 
TCOON,ioos:station:TCOON:518:1,2017-11-01T12:48:00Z,29.5150,-94.5133,0.0,5.4,241.0,9.2,'11111222,11111222,11111222' 
TCOON,ioos:station:TCOON:518:1,2017-11-01T12:54:00Z,29.5150,-94.5133,0.0,7.1,226.0,10.7,'11111222,11111222,11111222' 
TCOON,ioos:station:TCOON:518:1,2017-11-01T13:00:00Z,29.5150,-94.5133,0.0,4.7,227.0,9.0,'11111222,11111222,11111222' 
TCOON,ioos:station:TCOON:518:1,2017-11-01T13:06:00Z,29.5150,-94.5133,0.0,4.4,219.0,6.9,'11111222,11111222,11111222' 
TCOON,ioos:station:TCOON:518:1,2017-11-01T13:12:00Z,29.5150,-94.5133,0.0,5.4,225.0,9.6,'11111222,11111222,11111222' 
TCOON,ioos:station:TCOON:518:1,2017-11-01T13:18:00Z,29.5150,-94.5133,0.0,5.4,225.0,9.6,'1111122,1111122,1111122' 
TCOON,ioos:station:TCOON:518:1,2017-11-01T13:24:00Z,29.5150,-94.5133,0.0,3.8,218.0,8.2,'11111222,11111222,11111222' 
TCOON,ioos:station:TCOON:518:1,2017-11-01T13:30:00Z,29.5150,-94.5133,0.0,5.4,225.0,9.9,'11111222,11111222,11111222' 
TCOON,ioos:station:TCOON:518:1,2017-11-01T13:36:00Z,29.5150,-94.5133,0.0,4.7,224.0,8.1,'11111222,11111222,11111222' 
TCOON,ioos:station:TCOON:518:1,2017-11-01T13:42:00Z,29.5150,-94.5133,0.0,4.6,223.0,8.7,'11111222,11111222,11111222' 
TCOON,ioos:station:TCOON:518:1,2017-11-01T13:48:00Z,29.5150,-94.5133,0.0,4.7,219.0,8.3,'11111222,11111222,11111222' 
TCOON,ioos:station:TCOON:518:1,2017-11-01T13:54:00Z,29.5150,-94.5133,0.0,3.8,216.0,6.1,'11111222,11111222,11111222' 
TCOON,ioos:station:TCOON:518:1,2017-11-01T14:00:00Z,29.5150,-94.5133,0.0,3.7,229.0,5.8,'11111222,11111222,11111222' 
TCOON,ioos:station:TCOON:518:1,2017-11-01T14:06:00Z,29.5150,-94.5133,0.0,4.6,209.0,7.0,'11111222,11111222,11111222' 
TCOON,ioos:station:TCOON:518:1,2017-11-01T14:12:00Z,29.5150,-94.5133,0.0,4.0,204.0,6.2,'11111222,11111222,11111222' 
TCOON,ioos:station:TCOON:518:1,2017-11-01T14:18:00Z,29.5150,-94.5133,0.0,4.0,204.0,6.2,'1111122,1111122,1111122' 
TCOON,ioos:station:TCOON:518:1,2017-11-01T14:24:00Z,29.5150,-94.5133,0.0,2.3,218.0,4.7,'11111222,11111222,11111222' 
TCOON,ioos:station:TCOON:518:1,2017-11-01T14:30:00Z,29.5150,-94.5133,0.0,1.4,210.0,3.7,'11111222,11111222,11111222' 
TCOON,ioos:station:TCOON:518:1,2017-11-01T14:36:00Z,29.5150,-94.5133,0.0,2.2,200.0,3.8,'11111222,11111222,11111222' 
TCOON,ioos:station:TCOON:518:1,2017-11-01T14:42:00Z,29.5150,-94.5133,0.0,2.1,218.0,4.4,'11111222,11111222,11111222' 
TCOON,ioos:station:TCOON:518:1,2017-11-01T14:48:00Z,29.5150,-94.5133,0.0,3.1,238.0,4.7,'11111222,11111222,11111222' 
TCOON,ioos:station:TCOON:518:1,2017-11-01T14:54:00Z,29.5150,-94.5133,0.0,3.2,261.0,5.7,'11111222,11111222,11111222' 
TCOON,ioos:station:TCOON:518:1,2017-11-01T15:00:00Z,29.5150,-94.5133,0.0,1.8,266.0,3.4,'11111222,11111222,11111222' 
TCOON,ioos:station:TCOON:518:1,2017-11-01T15:06:00Z,29.5150,-94.5133,0.0,3.0,229.0,4.3,'11111222,11111222,11111222' 
TCOON,ioos:station:TCOON:518:1,2017-11-01T15:12:00Z,29.5150,-94.5133,0.0,3.9,244.0,5.4,'11111222,11111222,11111222' 
TCOON,ioos:station:TCOON:518:1,2017-11-01T15:18:00Z,29.5150,-94.5133,0.0,3.2,238.0,5.0,'11111222,11111222,11111222' 
TCOON,ioos:station:TCOON:518:1,2017-11-01T15:24:00Z,29.5150,-94.5133,0.0,3.2,238.0,5.0,'1111122,1111122,1111122' 
TCOON,ioos:station:TCOON:518:1,2017-11-01T15:30:00Z,29.5150,-94.5133,0.0,3.5,248.0,5.6,'11111222,11111222,11111222' 
TCOON,ioos:station:TCOON:518:1,2017-11-01T15:36:00Z,29.5150,-94.5133,0.0,3.0,259.0,5.1,'11111222,11111222,11111222' 
TCOON,ioos:station:TCOON:518:1,2017-11-01T15:42:00Z,29.5150,-94.5133,0.0,4.0,257.0,5.8,'11111222,11111222,11111222' 
TCOON,ioos:station:TCOON:518:1,2017-11-01T15:48:00Z,29.5150,-94.5133,0.0,3.3,251.0,4.9,'11111222,11111222,11111222' 
TCOON,ioos:station:TCOON:518:1,2017-11-01T15:54:00Z,29.5150,-94.5133,0.0,3.3,258.0,5.0,'11111222,11111222,11111222' 
TCOON,ioos:station:TCOON:518:1,2017-11-01T16:00:00Z,29.5150,-94.5133,0.0,3.3,260.0,5.0,'11111222,11111222,11111222' 
TCOON,ioos:station:TCOON:518:1,2017-11-01T16:06:00Z,29.5150,-94.5133,0.0,4.4,259.0,5.7,'11111222,11111222,11111222' 
TCOON,ioos:station:TCOON:518:1,2017-11-01T16:12:00Z,29.5150,-94.5133,0.0,4.2,260.0,5.8,'11111222,11111222,11111222' 
TCOON,ioos:station:TCOON:518:1,2017-11-01T16:18:00Z,29.5150,-94.5133,0.0,4.2,260.0,5.8,'1111122,1111122,1111122' 
TCOON,ioos:station:TCOON:518:1,2017-11-01T16:24:00Z,29.5150,-94.5133,0.0,5.1,247.0,6.9,'11111222,11111222,11111222' 
TCOON,ioos:station:TCOON:518:1,2017-11-01T16:30:00Z,29.5150,-94.5133,0.0,5.0,241.0,7.6,'11111222,11111222,11111222' 
TCOON,ioos:station:TCOON:518:1,2017-11-01T16:36:00Z,29.5150,-94.5133,0.0,3.7,253.0,6.2,'11111222,11111222,11111222' 
TCOON,ioos:station:TCOON:518:1,2017-11-01T16:42:00Z,29.5150,-94.5133,0.0,3.8,242.0,5.8,'11111222,11111222,11111222' 
TCOON,ioos:station:TCOON:518:1,2017-11-01T16:48:00Z,29.5150,-94.5133,0.0,3.8,248.0,6.2,'11111222,11111222,11111222' 
TCOON,ioos:station:TCOON:518:1,2017-11-01T16:54:00Z,29.5150,-94.5133,0.0,3.1,277.0,4.6,'11111222,11111222,11111222' 
TCOON,ioos:station:TCOON:518:1,2017-11-01T17:00:00Z,29.5150,-94.5133,0.0,2.7,278.0,4.7,'11111222,11111222,11111222' 
TCOON,ioos:station:TCOON:518:1,2017-11-01T17:06:00Z,29.5150,-94.5133,0.0,1.6,257.0,3.3,'11111222,11111222,11111222' 
TCOON,ioos:station:TCOON:518:1,2017-11-01T17:12:00Z,29.5150,-94.5133,0.0,2.2,263.0,3.5,'11111222,11111222,11111222' 
TCOON,ioos:station:TCOON:518:1,2017-11-01T17:18:00Z,29.5150,-94.5133,0.0,2.2,263.0,3.5,'1111122,1111122,1111122' 
TCOON,ioos:station:TCOON:518:1,2017-11-01T17:24:00Z,29.5150,-94.5133,0.0,1.6,254.0,2.8,'11111222,11111222,11111222' 
TCOON,ioos:station:TCOON:518:1,2017-11-01T17:30:00Z,29.5150,-94.5133,0.0,2.0,273.0,2.8,'11111222,11111222,11111222' 
TCOON,ioos:station:TCOON:518:1,2017-11-01T17:36:00Z,29.5150,-94.5133,0.0,2.0,282.0,3.4,'11111222,11111222,11111222' 
TCOON,ioos:station:TCOON:518:1,2017-11-01T17:42:00Z,29.5150,-94.5133,0.0,2.0,266.0,2.7,'11111222,11111222,11111222' 
TCOON,ioos:station:TCOON:518:1,2017-11-01T17:48:00Z,29.5150,-94.5133,0.0,3.0,313.0,3.6,'11111222,11111222,11111222' 
TCOON,ioos:station:TCOON:518:1,2017-11-01T17:54:00Z,29.5150,-94.5133,0.0,3.4,316.0,3.9,'11111222,11111222,11111222' 
TCOON,ioos:station:TCOON:518:1,2017-11-01T18:00:00Z,29.5150,-94.5133,0.0,2.6,310.0,3.7,'11111222,11111222,11111222' 
TCOON,ioos:station:TCOON:518:1,2017-11-01T18:06:00Z,29.5150,-94.5133,0.0,1.4,313.0,2.6,'11111222,11111222,11111222' 
TCOON,ioos:station:TCOON:518:1,2017-11-01T18:12:00Z,29.5150,-94.5133,0.0,2.5,315.0,2.9,'11111222,11111222,11111222' 
TCOON,ioos:station:TCOON:518:1,2017-11-01T18:18:00Z,29.5150,-94.5133,0.0,2.5,315.0,2.9,'1111122,1111122,1111122' 
TCOON,ioos:station:TCOON:518:1,2017-11-01T18:24:00Z,29.5150,-94.5133,0.0,2.6,312.0,2.7,'11111222,11111222,11111222' 
TCOON,ioos:station:TCOON:518:1,2017-11-01T18:30:00Z,29.5150,-94.5133,0.0,2.5,310.0,3.1,'11111222,11111222,11111222' 
TCOON,ioos:station:TCOON:518:1,2017-11-01T18:36:00Z,29.5150,-94.5133,0.0,1.2,324.0,2.3,'11111222,11111222,11111222' 
TCOON,ioos:station:TCOON:518:1,2017-11-01T18:42:00Z,29.5150,-94.5133,0.0,1.1,330.0,1.5,'11111222,11111222,11111222' 
TCOON,ioos:station:TCOON:518:1,2017-11-01T18:48:00Z,29.5150,-94.5133,0.0,1.5,288.0,1.8,'11111222,11111222,11111222' 
TCOON,ioos:station:TCOON:518:1,2017-11-01T18:54:00Z,29.5150,-94.5133,0.0,0.4,38.0,1.8,'11111222,11111222,11111222' 
TCOON,ioos:station:TCOON:518:1,2017-11-01T19:00:00Z,29.5150,-94.5133,0.0,1.6,98.0,2.3,'11111222,11111222,11111222' 
TCOON,ioos:station:TCOON:518:1,2017-11-01T19:06:00Z,29.5150,-94.5133,0.0,2.3,177.0,3.6,'11111222,11111222,11111222' 
TCOON,ioos:station:TCOON:518:1,2017-11-01T19:12:00Z,29.5150,-94.5133,0.0,1.6,182.0,3.6,'11111222,11111222,11111222' 
TCOON,ioos:station:TCOON:518:1,2017-11-01T19:18:00Z,29.5150,-94.5133,0.0,1.6,182.0,3.6,'1111122,1111122,1111122' 
TCOON,ioos:station:TCOON:518:1,2017-11-01T19:24:00Z,29.5150,-94.5133,0.0,1.6,182.0,2.6,'11111222,11111222,11111222' 
TCOON,ioos:station:TCOON:518:1,2017-11-01T19:30:00Z,29.5150,-94.5133,0.0,2.2,169.0,2.8,'11111222,11111222,11111222' 
TCOON,ioos:station:TCOON:518:1,2017-11-01T19:36:00Z,29.5150,-94.5133,0.0,1.7,185.0,3.4,'11111222,11111222,11111222' 
TCOON,ioos:station:TCOON:518:1,2017-11-01T19:42:00Z,29.5150,-94.5133,0.0,2.5,193.0,3.4,'11111222,11111222,11111222' 
TCOON,ioos:station:TCOON:518:1,2017-11-01T19:48:00Z,29.5150,-94.5133,0.0,1.9,190.0,3.4,'11111222,11111222,11111222' 
TCOON,ioos:station:TCOON:518:1,2017-11-01T19:54:00Z,29.5150,-94.5133,0.0,2.7,194.0,4.3,'11111222,11111222,11111222' 
TCOON,ioos:station:TCOON:518:1,2017-11-01T20:00:00Z,29.5150,-94.5133,0.0,2.4,188.0,3.3,'11111222,11111222,11111222' 
TCOON,ioos:station:TCOON:518:1,2017-11-01T20:06:00Z,29.5150,-94.5133,0.0,2.2,188.0,3.6,'11111222,11111222,11111222' 
TCOON,ioos:station:TCOON:518:1,2017-11-01T20:12:00Z,29.5150,-94.5133,0.0,1.8,203.0,3.7,'11111222,11111222,11111222' 
TCOON,ioos:station:TCOON:518:1,2017-11-01T20:18:00Z,29.5150,-94.5133,0.0,1.8,203.0,3.7,'1111122,1111122,1111122' 
TCOON,ioos:station:TCOON:518:1,2017-11-01T20:24:00Z,29.5150,-94.5133,0.0,1.8,200.0,3.5,'11111222,11111222,11111222' 